[[{"header":{"parameterUnit":"m.s-1","parameterCategory":1,"la1":30.2991,"la2":30.254,"lo1":-89.0895,"lo2":-89.0444,"dy":0.0017,"dx":0.0017,"nx":28,"ny":28,"refTime":"2025-01-04T09:00:00:Z","depth":0,"parameterNumber":2,"parameterNumberName":"U-component_of_WINDS"},"data":[0,0,0,0,0,0,0,0,0,0,0,0,0,0,0,0,0,0,0,0,0,0,0,0,0,0,0,0,0,0,0,0,0,0,0,0,0,0,0,0,0,0,0,0,0,0,0,0,0,0,0,0,0,0,0,0,0,0,-2.3675,-2.3675,0,-2.3751,-2.3752,-2.3752,-2.3784,-2.3783,-2.3783,-2.3783,-2.3859,-2.3862,-2.3864,0,0,0,0,0,0,0,0,0,0,0,0,0,-2.3555,-2.3557,-2.3675,-2.3676,-2.3676,-2.3751,-2.3752,-2.3753,-2.3784,-2.3783,-2.3783,-2.3783,-2.3859,-2.3861,-2.3864,0,0,0,0,0,0,0,0,0,0,0,0,0,-2.3616,-2.3557,-2.3674,-2.3701,-2.3704,-2.375,-2.3752,-2.3753,-2.3784,-2.3783,-2.3783,-2.3783,-2.3858,-2.3861,-2.3864,-2.389,0,0,-2.3874,-2.3876,0,0,0,0,0,0,0,0,-2.3613,-2.3621,-2.3696,-2.3699,-2.3703,-2.3757,-2.3737,-2.3799,-2.3784,-2.3753,-2.3783,-2.3783,-2.3826,-2.3832,-2.3846,-2.3893,-2.3896,-2.3875,-2.3877,-2.3878,-2.3879,0,0,0,0,0,0,0,-2.3608,-2.3618,-2.3705,-2.3697,-2.3701,-2.3708,-2.3717,-2.3749,-2.379,-2.3756,-2.3758,-2.3767,-2.3827,-2.3843,-2.3848,-2.3897,-2.3875,-2.3877,-2.3879,-2.3881,-2.3968,-2.3969,0,0,0,0,0,0,-2.36,-2.3614,-2.3702,-2.3707,-2.3656,-2.3711,-2.372,-2.374,-2.379,-2.3797,-2.3767,-2.3768,-2.3838,-2.3844,-2.3851,-2.3884,-2.3878,-2.3881,-2.3883,-2.3968,-2.3968,-2.3969,0,0,0,0,0,0,-2.3597,-2.3608,-2.3699,-2.3661,-2.3673,-2.3713,-2.3735,-2.3742,-2.3757,-2.3798,-2.3805,-2.3776,-2.3838,-2.3847,-2.388,-2.3887,-2.3883,-2.3886,-2.3968,-2.3968,-2.3969,-2.3949,0,0,0,0,0,0,-2.3594,-2.3606,-2.3617,-2.3661,-2.3675,-2.3727,-2.3736,-2.3743,-2.3763,-2.3765,-2.3808,-2.3815,-2.3838,-2.3875,-2.3883,-2.3891,-2.3888,-2.3967,-2.3968,-2.3969,-2.3949,-2.3949,-2.3949,0,0,0,0,0,-2.3589,-2.3608,-2.3617,-2.3628,-2.3689,-2.3727,-2.3735,-2.3762,-2.3764,-2.3774,-2.38,-2.3814,-2.3885,-2.3878,-2.3887,-2.3897,-2.3967,-2.3968,-2.3968,-2.3949,-2.3949,-2.3949,0,0,0,0,0,0,-2.3563,-2.3614,-2.3625,-2.3659,-2.3688,-2.3732,-2.3747,-2.3761,-2.379,-2.3791,-2.3822,-2.3832,-2.3862,-2.3883,-2.3874,-2.3924,-2.3927,-2.393,-2.3909,-2.3909,-2.3909,-2.3903,-2.3891,0,0,0,0,0,-2.3561,-2.3589,-2.3632,-2.3657,-2.3672,-2.3706,-2.3724,-2.3742,-2.3774,-2.3787,-2.3815,-2.3845,-2.3874,-2.3893,-2.3922,-2.3952,-2.3962,-2.3964,-2.3963,-2.3963,-2.3965,-2.3982,-2.3983,-2.3972,-2.3972,-2.3972,0,0,-2.3558,-2.3589,-2.3604,-2.3653,-2.3678,-2.3705,-2.3717,-2.3745,-2.3765,-2.3791,-2.3824,-2.3846,-2.3881,-2.3913,-2.3929,-2.3932,-2.397,-2.3964,-2.3963,-2.3965,-2.3983,-2.3984,-2.3985,-2.3972,-2.3972,-2.3972,0,0,-2.3565,-2.3592,-2.3616,-2.3641,-2.3679,-2.3702,-2.3708,-2.375,-2.3765,-2.3799,-2.3819,-2.3843,-2.3893,-2.3917,-2.3936,-2.3952,-2.3966,-2.3961,-2.3959,-2.3975,-2.3976,-2.3977,-2.3983,-2.3985,-2.3963,-2.3963,-2.3963,0,-2.3556,-2.3598,-2.3626,-2.3653,-2.3674,-2.3699,-2.3723,-2.3746,-2.3791,-2.3804,-2.3807,-2.3869,-2.3895,-2.3933,-2.3937,-2.3951,-2.3959,-2.3956,-2.3974,-2.3975,-2.3977,-2.3982,-2.3984,-2.3962,-2.3962,-2.3962,-2.3962,0,-2.3584,-2.3613,-2.3628,-2.3671,-2.3694,-2.3719,-2.3751,-2.377,-2.3786,-2.3808,-2.3842,-2.3874,-2.391,-2.392,-2.3936,-2.396,-2.3961,-2.3968,-2.3972,-2.3976,-2.3982,-2.3985,-2.396,-2.3961,-2.3961,-2.3961,0,0,-2.3577,-2.3636,-2.3641,-2.3661,-2.3705,-2.3727,-2.3754,-2.3789,-2.3805,-2.3835,-2.3858,-2.3899,-2.3906,-2.3928,-2.3946,-2.3961,-2.3971,-2.3967,-2.3968,-2.3966,-2.4,-2.3994,-2.3996,-2.398,-2.3981,-2.3981,-2.3997,0,-2.3591,-2.3639,-2.3666,-2.3703,-2.373,-2.3753,-2.3776,-2.3805,-2.3827,-2.3852,-2.3876,-2.3905,-2.3912,-2.3925,-2.3941,-2.3967,-2.3978,-2.3966,-2.4001,-2.4002,-2.3992,-2.3999,-2.3993,-2.4006,-2.3999,-2.4,-2.4,0,-2.3612,-2.3643,-2.3683,-2.3723,-2.3736,-2.3756,-2.379,-2.3814,-2.3847,-2.3862,-2.3886,-2.3904,-2.3932,-2.3934,-2.3973,-2.3964,-2.398,-2.3995,-2.3996,-2.4,-2.4001,-2.4003,-2.4011,-2.4012,-2.4004,-2.4004,-2.4003,0,-2.3603,-2.3654,-2.3685,-2.3701,-2.3749,-2.3762,-2.3783,-2.3816,-2.3835,-2.3865,-2.3878,-2.3911,-2.3928,-2.3953,-2.398,-2.3978,-2.4016,-2.402,-2.4029,-2.4028,-2.4035,-2.4034,-2.4045,-2.4046,-2.4046,-2.4046,-2.4046,0,-2.3615,-2.3639,-2.3681,-2.37,-2.3727,-2.3756,-2.3782,-2.3805,-2.3834,-2.3857,-2.3879,-2.39,-2.3934,-2.3959,-2.398,-2.4009,-2.4017,-2.4029,-2.4035,-2.4028,-2.4026,-2.4038,-2.4038,-2.4046,-2.4046,-2.4046,-2.4046,0,-2.3609,-2.3639,-2.3673,-2.3716,-2.3727,-2.3745,-2.3781,-2.38,-2.3823,-2.3852,-2.3861,-2.3896,-2.3927,-2.3956,-2.3997,-2.4011,-2.404,-2.4047,-2.4029,-2.4032,-2.4039,-2.4038,-2.4058,-2.4062,-2.406,-2.406,-2.406,0,-2.3615,-2.3633,-2.3678,-2.3695,-2.3715,-2.3743,-2.3763,-2.3793,-2.3813,-2.3852,-2.3866,-2.3898,-2.3926,-2.3974,-2.4003,-2.4035,-2.4043,-2.4048,-2.4047,-2.4039,-2.4043,-2.4041,-2.4043,-2.4047,-2.4047,-2.4047,-2.4047,0,-2.3621,-2.3635,-2.3663,-2.3696,-2.372,-2.3747,-2.3776,-2.3788,-2.3823,-2.3845,-2.3877,-2.3898,-2.394,-2.3972,-2.4007,-2.4028,-2.4043,-2.4046,-2.405,-2.4043,-2.4032,-2.4038,-2.4028,-2.4046,-2.4046,-2.4046,-2.4046,-2.4046,-2.3621,-2.3639,-2.3673,-2.3704,-2.3728,-2.3754,-2.3774,-2.3799,-2.3826,-2.3863,-2.3879,-2.3911,-2.3944,-2.3992,-2.4013,-2.4038,-2.4041,-2.4047,-2.4048,-2.4049,-2.4047,-2.4028,-2.4044,-2.4045,-2.4045,-2.4045,-2.4045,0,-2.3629,-2.3652,-2.368,-2.3719,-2.3743,-2.3755,-2.3787,-2.3806,-2.3835,-2.3864,-2.3891,-2.3927,-2.3958,-2.399,-2.4023,-2.4037,-2.4045,-2.4044,-2.4044,-2.4048,-2.4043,-2.4036,-2.4038,-2.4038,-2.4038,-2.4038,-2.4038,-2.4038,-2.3636,-2.3666,-2.3684,-2.3727,-2.3749,-2.3782,-2.3799,-2.3822,-2.3846,-2.3886,-2.3912,-2.3932,-2.3963,-2.3998,-2.4026,-2.4035,-2.4046,-2.4044,-2.4054,-2.4048,-2.4049,-2.4049,-2.4043,-2.4046,-2.4046,-2.4058,-2.4058,-2.4058]},{"header":{"parameterUnit":"m.s-1","parameterCategory":1,"la1":30.2991,"la2":30.254,"lo1":-89.0895,"lo2":-89.0444,"dy":0.0017,"dx":0.0017,"nx":28,"ny":28,"refTime":"2025-01-04T09:00:00:Z","depth":0,"parameterNumber":3,"parameterNumberName":"V-component_of_WINDS"},"data":[0,0,0,0,0,0,0,0,0,0,0,0,0,0,0,0,0,0,0,0,0,0,0,0,0,0,0,0,0,0,0,0,0,0,0,0,0,0,0,0,0,0,0,0,0,0,0,0,0,0,0,0,0,0,0,0,0,0,5.457,5.4571,0,5.4597,5.4597,5.4597,5.4581,5.458,5.4579,5.4579,5.4603,5.4605,5.4606,0,0,0,0,0,0,0,0,0,0,0,0,0,5.4507,5.4508,5.457,5.4571,5.4571,5.4597,5.4597,5.4597,5.4581,5.458,5.4579,5.4578,5.4603,5.4604,5.4606,0,0,0,0,0,0,0,0,0,0,0,0,0,5.4534,5.4509,5.457,5.4566,5.4566,5.4597,5.4597,5.4597,5.4581,5.458,5.4579,5.4578,5.4602,5.4604,5.4606,5.4642,0,0,5.4612,5.4613,0,0,0,0,0,0,0,0,5.4532,5.4536,5.4566,5.4567,5.4566,5.4584,5.4584,5.4612,5.4582,5.4575,5.4579,5.4577,5.4598,5.46,5.4607,5.4643,5.4644,5.4613,5.4614,5.4615,5.4615,0,0,0,0,0,0,0,5.4531,5.4535,5.4581,5.4567,5.4567,5.4563,5.4566,5.4589,5.4593,5.4576,5.4575,5.4578,5.4597,5.4605,5.4608,5.4644,5.4613,5.4614,5.4616,5.4616,5.4715,5.4716,0,0,0,0,0,0,5.4529,5.4534,5.458,5.4581,5.4546,5.4565,5.4568,5.458,5.4592,5.4593,5.4579,5.4577,5.4603,5.4605,5.4609,5.4654,5.4615,5.4617,5.4618,5.4713,5.4715,5.4716,0,0,0,0,0,0,5.4528,5.4533,5.4579,5.4557,5.4563,5.4568,5.4581,5.4581,5.4589,5.4595,5.4595,5.4587,5.4602,5.4606,5.4635,5.4655,5.4618,5.4619,5.4712,5.4714,5.4716,5.4744,0,0,0,0,0,0,5.4526,5.4533,5.4546,5.4558,5.4564,5.4604,5.4582,5.4582,5.4593,5.4591,5.4602,5.4603,5.4601,5.4632,5.4637,5.4657,5.4621,5.471,5.4713,5.4715,5.4741,5.4746,5.4751,0,0,0,0,0,5.4524,5.4551,5.4547,5.4552,5.4581,5.4605,5.4609,5.4607,5.4594,5.4608,5.4613,5.4602,5.4652,5.4635,5.464,5.4661,5.4709,5.4712,5.4715,5.4739,5.4745,5.4751,0,0,0,0,0,0,5.454,5.4553,5.4548,5.458,5.4592,5.4603,5.462,5.4614,5.4629,5.4626,5.4623,5.4626,5.4657,5.4661,5.4643,5.4699,5.4678,5.4682,5.4694,5.4701,5.4706,5.4704,5.4623,0,0,0,0,0,5.4548,5.4567,5.4577,5.4604,5.4611,5.4615,5.4625,5.4623,5.4635,5.464,5.4646,5.4658,5.4677,5.4689,5.4705,5.4741,5.4745,5.4759,5.4764,5.4768,5.4772,5.4795,5.4802,5.4727,5.4727,5.4727,0,0,5.4563,5.4572,5.4584,5.4608,5.4617,5.4638,5.4619,5.464,5.4657,5.4643,5.4672,5.4677,5.469,5.4724,5.4739,5.4729,5.4794,5.4772,5.4775,5.4777,5.4799,5.4806,5.4813,5.4729,5.4728,5.4728,0,0,5.4602,5.461,5.4636,5.4646,5.4661,5.4664,5.4671,5.4683,5.4687,5.4716,5.4708,5.4727,5.4757,5.4769,5.4778,5.4826,5.4819,5.4832,5.4858,5.4881,5.4887,5.4892,5.4912,5.4919,5.4835,5.4836,5.4836,0,5.4619,5.465,5.4649,5.4674,5.4685,5.4676,5.4703,5.4713,5.4733,5.4741,5.473,5.4772,5.4779,5.4818,5.483,5.4837,5.4846,5.483,5.4886,5.4892,5.4897,5.4916,5.4923,5.4837,5.4837,5.4837,5.4837,0,5.4672,5.4694,5.4713,5.4735,5.4749,5.4774,5.4778,5.4792,5.479,5.4795,5.4827,5.4836,5.4857,5.4866,5.4862,5.4905,5.4898,5.4887,5.4866,5.4906,5.4924,5.4931,5.484,5.4839,5.4839,5.4838,0,0,5.472,5.4744,5.4751,5.4763,5.4781,5.4798,5.4824,5.4846,5.486,5.4874,5.4898,5.4926,5.4917,5.4928,5.4926,5.4946,5.4988,5.4932,5.4933,5.4945,5.5039,5.5049,5.5057,5.4983,5.4984,5.4985,5.5039,0,5.4762,5.4809,5.4811,5.4854,5.4877,5.487,5.4893,5.4907,5.4913,5.4933,5.4939,5.4961,5.4945,5.4952,5.4972,5.4978,5.5007,5.4974,5.5006,5.5007,5.5005,5.5066,5.5076,5.5126,5.5045,5.5046,5.5047,0,5.4817,5.4837,5.4883,5.4902,5.4911,5.4932,5.4955,5.4973,5.499,5.4993,5.5008,5.5005,5.5033,5.5011,5.5052,5.503,5.5043,5.5048,5.505,5.5054,5.503,5.5074,5.5142,5.515,5.5058,5.5057,5.5056,0,5.4852,5.4889,5.4923,5.4932,5.4954,5.497,5.4979,5.4995,5.501,5.5029,5.5039,5.5061,5.5073,5.5091,5.5094,5.5078,5.5136,5.5113,5.5141,5.5141,5.5154,5.5153,5.5227,5.5159,5.5159,5.5158,5.5158,0,5.49,5.4929,5.4939,5.496,5.4993,5.4995,5.5028,5.5037,5.5052,5.5075,5.507,5.5091,5.5094,5.5117,5.5119,5.5154,5.5159,5.5163,5.5164,5.5165,5.5165,5.5174,5.5172,5.516,5.516,5.516,5.5159,0,5.4944,5.4951,5.4988,5.5007,5.5013,5.5037,5.5053,5.5074,5.508,5.511,5.5117,5.5127,5.5154,5.5159,5.519,5.5192,5.5235,5.5231,5.523,5.523,5.5258,5.5257,5.5342,5.5355,5.5276,5.5277,5.5278,0,5.4975,5.4998,5.5021,5.5037,5.5048,5.5073,5.5089,5.5093,5.511,5.5134,5.5152,5.5179,5.5201,5.5245,5.5255,5.528,5.5278,5.5306,5.5281,5.5283,5.5282,5.5281,5.5285,5.5311,5.5312,5.5313,5.5313,0,5.503,5.5034,5.5058,5.5084,5.5104,5.5124,5.5143,5.5157,5.5164,5.5183,5.5212,5.523,5.5264,5.5291,5.5317,5.5327,5.5323,5.5321,5.5329,5.5331,5.5331,5.5335,5.5246,5.5319,5.5318,5.5318,5.5318,5.5317,5.5071,5.5092,5.5113,5.5141,5.5157,5.5176,5.5198,5.5208,5.5233,5.5262,5.5263,5.5295,5.5315,5.5349,5.5362,5.5388,5.5379,5.5389,5.5393,5.5396,5.54,5.5326,5.5392,5.5392,5.5391,5.5391,5.5391,0,5.5128,5.5143,5.5168,5.5197,5.522,5.5214,5.5237,5.5256,5.5285,5.5304,5.5327,5.5363,5.5391,5.5404,5.5432,5.5451,5.545,5.5458,5.5458,5.5461,5.5405,5.5396,5.5459,5.5459,5.5459,5.5459,5.5459,5.5459,5.5161,5.5199,5.5206,5.5253,5.5266,5.5299,5.5313,5.5332,5.5348,5.5388,5.5412,5.5421,5.5439,5.5469,5.5496,5.5499,5.5511,5.5521,5.5524,5.5471,5.5464,5.5458,5.545,5.5523,5.5523,5.5578,5.5579,5.5579]}]]